Weather History for Kerrville, TX

Change the Weather History Date:

Friday, September 21, 2012

  Actual Average (KHDO) Record (KHDO)
Temperature  
Mean Temperature 70 °F -  
Max Temperature 87 °F 87 °F 98 °F (2011)
Min Temperature 53 °F 63 °F 57 °F (2002)
Cooling Degree Days 5    
Growing Degree Days 20 (Base 50)    
Moisture  
Dew Point 51 °F    
Average Humidity 60    
Maximum Humidity 94    
Minimum Humidity 17    
Precipitation  
Precipitation 0.00 in - - ()
Sea Level Pressure  
Sea Level Pressure 30.04 in    
Wind  
Wind Speed 2 mph (SSE)    
Max Wind Speed 9 mph    
Max Gust Speed -    
Visibility 10 miles    
Events      
Averages and records for this station are not official NWS values.
T = Trace of Precipitation, MM = Missing Value Source: NWS Daily Summary

Daily Weather History Graph

Daily Weather History Graph

Search for Another Location

Airport:

Trip Planner

Search our weather history database for the weather conditions in past years. The results will help you decide how hot, cold, wet, or windy it might be!

Date:

Astronomy

Sep. 21, 2012 Rise Set
Actual Time 7:24 AM CDT 7:33 PM CDT
Civil Twilight 7:00 AM CDT 7:57 PM CDT
Nautical Twilight 6:32 AM CDT 8:25 PM CDT
Astronomical Twilight 6:04 AM CDT 8:53 PM CDT
Moon 1:21 PM CDT (9/21) No Moon Set
Length of Visible Light 12h 56m
Length of Day
12h 09m
Waxing Crescent, 37% of the Moon is Illuminated
Sep 21
Waxing Crescent
Sep 22
First Quarter
Sep 29
Full
Oct 8
Last Quarter
Oct 15
New

Hourly Weather History & Observations

Time (CDT) Temp. Dew Point Humidity Pressure Visibility Wind Dir Wind Speed Gust Speed Precip Events Conditions
12:15 AM 64.4 °F 57.2 °F 77% 30.07 in 10.0 mi Calm Calm - N/A   Clear
12:55 AM 62.6 °F 57.2 °F 82% 30.06 in 10.0 mi Calm Calm - N/A   Clear
1:15 AM 60.8 °F 57.2 °F 88% 30.06 in 10.0 mi Calm Calm - N/A   Clear
1:35 AM 60.8 °F 57.2 °F 88% 30.06 in 10.0 mi North 3.5 mph - N/A   Clear
1:55 AM 60.8 °F 55.4 °F 82% 30.06 in 10.0 mi Calm Calm - N/A   Clear
2:15 AM 60.8 °F 57.2 °F 88% 30.06 in 10.0 mi Calm Calm - N/A   Clear
2:35 AM 60.8 °F 57.2 °F 88% 30.06 in 10.0 mi North 3.5 mph - N/A   Clear
2:55 AM 59.0 °F 55.4 °F 88% 30.06 in 10.0 mi North 4.6 mph - N/A   Clear
3:15 AM 59.0 °F 55.4 °F 88% 30.05 in 10.0 mi North 3.5 mph - N/A   Clear
3:35 AM 59.0 °F 55.4 °F 88% 30.05 in 10.0 mi Calm Calm - N/A   Clear
3:55 AM 59.0 °F 55.4 °F 88% 30.05 in 10.0 mi Calm Calm - N/A   Clear
4:15 AM 59.0 °F 55.4 °F 88% 30.05 in 10.0 mi Calm Calm - N/A   Clear
4:35 AM 55.4 °F 53.6 °F 94% 30.05 in 10.0 mi NNW 3.5 mph - N/A   Clear
4:55 AM 55.4 °F 53.6 °F 94% 30.05 in 10.0 mi NW 3.5 mph - N/A   Clear
5:15 AM 55.4 °F 53.6 °F 94% 30.05 in 10.0 mi Calm Calm - N/A   Clear
5:35 AM 55.4 °F 53.6 °F 94% 30.05 in 10.0 mi NW 3.5 mph - N/A   Clear
5:55 AM 55.4 °F 53.6 °F 94% 30.05 in 10.0 mi Calm Calm - N/A   Clear
6:15 AM 55.4 °F 53.6 °F 94% 30.05 in 10.0 mi Calm Calm - N/A   Clear
6:35 AM 55.4 °F 53.6 °F 94% 30.05 in 7.0 mi Calm Calm - N/A   Clear
6:55 AM 55.4 °F 53.6 °F 94% 30.06 in 7.0 mi Calm Calm - N/A   Clear
7:15 AM 55.4 °F 53.6 °F 94% 30.06 in 10.0 mi Calm Calm - N/A   Clear
7:35 AM 55.4 °F 53.6 °F 94% 30.06 in 10.0 mi Calm Calm - N/A   Clear
7:55 AM 53.6 °F 51.8 °F 94% 30.07 in 10.0 mi NNW 3.5 mph - N/A   Clear
8:15 AM 55.4 °F 53.6 °F 94% 30.06 in 10.0 mi Calm Calm - N/A   Scattered Clouds
8:35 AM 59.0 °F 55.4 °F 88% 30.06 in 10.0 mi Calm Calm - N/A   Scattered Clouds
8:55 AM 59.0 °F 55.4 °F 88% 30.06 in 10.0 mi Calm Calm - N/A   Scattered Clouds
9:15 AM 62.6 °F 57.2 °F 82% 30.07 in 10.0 mi Calm Calm - N/A   Scattered Clouds
9:35 AM 64.4 °F 55.4 °F 73% 30.07 in 10.0 mi Calm Calm - N/A   Scattered Clouds
9:55 AM 68.0 °F 55.4 °F 64% 30.08 in 10.0 mi NW 4.6 mph - N/A   Clear
10:35 AM 71.6 °F 57.2 °F 60% 30.08 in 10.0 mi Calm Calm - N/A   Scattered Clouds
10:55 AM 77.0 °F 57.2 °F 50% 30.07 in 10.0 mi Calm Calm - N/A   Clear
11:15 AM 78.8 °F 53.6 °F 42% 30.07 in 10.0 mi South 8.1 mph - N/A   Clear
11:35 AM 78.8 °F 51.8 °F 39% 30.07 in 10.0 mi SSW 5.8 mph - N/A   Clear
11:55 AM 80.6 °F 51.8 °F 37% 30.06 in 10.0 mi SSE 3.5 mph - N/A   Clear
12:15 PM 80.6 °F 48.2 °F 32% 30.05 in 10.0 mi SSW 4.6 mph - N/A   Scattered Clouds
12:35 PM 80.6 °F 46.4 °F 30% 30.05 in 10.0 mi WSW 4.6 mph - N/A   Clear
12:55 PM 82.4 °F 46.4 °F 28% 30.04 in 10.0 mi SSW 4.6 mph - N/A   Clear
1:15 PM 82.4 °F 42.8 °F 25% 30.04 in 10.0 mi SSE 3.5 mph - N/A   Clear
1:35 PM 82.4 °F 42.8 °F 25% 30.03 in 10.0 mi ENE 3.5 mph - N/A   Clear
1:55 PM 82.4 °F 42.8 °F 25% 30.02 in 10.0 mi South 8.1 mph - N/A   Clear
2:15 PM 84.2 °F 41.0 °F 22% 30.01 in 10.0 mi South 3.5 mph - N/A   Clear
2:55 PM 86.0 °F 42.8 °F 22% 30.00 in 10.0 mi Calm Calm - N/A   Clear
3:15 PM 86.0 °F 42.8 °F 22% 29.99 in 10.0 mi South 8.1 mph - N/A   Clear
3:35 PM 86.0 °F 39.2 °F 19% 29.99 in 10.0 mi Calm Calm - N/A   Clear
3:55 PM 87.8 °F 37.4 °F 17% 29.99 in 10.0 mi ESE 4.6 mph - N/A   Clear
4:15 PM 86.0 °F 37.4 °F 18% 29.99 in 10.0 mi Calm Calm - N/A   Clear
4:35 PM 87.8 °F 42.8 °F 21% 29.98 in 10.0 mi SSW 6.9 mph - N/A   Clear
4:55 PM 86.0 °F 42.8 °F 22% 29.98 in 10.0 mi South 3.5 mph - N/A   Clear
5:15 PM 86.0 °F 42.8 °F 22% 29.97 in 10.0 mi South 9.2 mph - N/A   Clear
5:35 PM 86.0 °F 41.0 °F 20% 29.98 in 10.0 mi South 6.9 mph - N/A   Clear
6:15 PM 86.0 °F 41.0 °F 20% 29.99 in 10.0 mi SSW 5.8 mph - N/A   Clear
6:55 PM 82.4 °F 42.8 °F 25% 29.99 in 10.0 mi South 5.8 mph - N/A   Clear
7:15 PM 80.6 °F 46.4 °F 30% 30.00 in 10.0 mi SSE 5.8 mph - N/A   Clear
7:35 PM 78.8 °F 46.4 °F 32% 30.00 in 10.0 mi ESE 4.6 mph - N/A   Clear
7:55 PM 77.0 °F 50.0 °F 39% 30.01 in 10.0 mi ESE 3.5 mph - N/A   Clear
8:15 PM 75.2 °F 53.6 °F 47% 30.02 in 10.0 mi ESE 3.5 mph - N/A   Clear
8:35 PM 73.4 °F 51.8 °F 47% 30.02 in 10.0 mi Calm Calm - N/A   Clear
8:55 PM 73.4 °F 50.0 °F 44% 30.03 in 10.0 mi ESE 3.5 mph - N/A   Clear
9:15 PM 71.6 °F 51.8 °F 50% 30.04 in 10.0 mi Calm Calm - N/A   Clear
9:35 PM 71.6 °F 51.8 °F 50% 30.04 in 10.0 mi ESE 4.6 mph - N/A   Clear
9:55 PM 71.6 °F 50.0 °F 46% 30.04 in 10.0 mi ESE 3.5 mph - N/A   Clear
10:15 PM 69.8 °F 53.6 °F 56% 30.04 in 10.0 mi Calm Calm - N/A   Clear
10:35 PM 64.4 °F 53.6 °F 68% 30.05 in 10.0 mi Calm Calm - N/A   Clear
10:55 PM 64.4 °F 51.8 °F 64% 30.05 in 10.0 mi Calm Calm - N/A   Clear
11:15 PM 62.6 °F 53.6 °F 72% 30.05 in 10.0 mi Calm Calm - N/A   Clear
11:35 PM 62.6 °F 53.6 °F 72% 30.04 in 10.0 mi Calm Calm - N/A   Clear
11:55 PM 60.8 °F 53.6 °F 77% 30.05 in 10.0 mi Calm Calm - N/A   Clear